Regional Weather Roundup
Issued by NWS

Home | Current Version | Previous Version | Graphics & Text | Print | Product List | Glossary On
Versions: 1 2 3 4 5 6 7 8 9 10 11 12 13 14 15 16 17 18 19 20 21 22 23 24 25 26 27 28 29 30 31 32 33 34 35 36 37 38 39 40 41 42 43 44 45 46 47 48 49 50
000
ASUS44 KMEG 161410
RWRTN
TENNESSEE HOURLY STATE WEATHER ROUNDUP
NATIONAL WEATHER SERVICE MEMPHIS TN
900 AM CDT WED AUG 16 2017

TNZ002-004-019-021-049-052-054-088>092-161500-
WEST TENNESSEE

CITY           SKY/WX    TMP DP  RH WIND       PRES   REMARKS
MEMPHIS INTL   CLOUDY    78  75  90 SW8       30.03R
NWS MEMPHIS      N/A     79 N/A N/A MISG        N/A
JACKSON        CLOUDY    78  76  93 S8        30.03S
DYERSBURG      CLOUDY    80  76  87 VRB6      30.02R
COVINGTON      PTSUNNY   79  75  89 S8G14     30.02R
UNION CITY     PTSUNNY   79  77  94 S8        30.00R
PARIS          PTSUNNY   79  75  89 S8        30.02R
LEXINGTON      CLOUDY    75  73  94 SW8       30.04F
SELMER         CLOUDY    75  73  94 S6        30.05S
SAVANNAH       CLOUDY    79  73  83 S8        30.05R
$$

TNZ008-025-027-028-033-062-065-066-161500-
NORTH MIDDLE TENNESSEE

CITY           SKY/WX    TMP DP  RH WIND       PRES   REMARKS
NASHVILLE      CLOUDY    76  73  91 S6        30.07R
PORTLAND       PTSUNNY   79  73  83 SW10      30.05F
CLARKSVILLE    MOSUNNY   78  73  84 S3        30.03S
SMYRNA         CLOUDY    76  73  91 SE6       30.08S
COOKEVILLE     CLOUDY    75  73  94 SE5       30.09F
GALLATIN       MOSUNNY   77  73  88 SW5       30.08S
CROSSVILLE     LGT RAIN  71  69  93 CALM      30.16R
$$

TNZ061-075-076-078-094-096-097-161500-
SOUTH MIDDLE TENNESSEE

CITY           SKY/WX    TMP DP  RH WIND       PRES   REMARKS
FAYETTEVILLE   CLOUDY    75  73  94 SW6       30.10R
TULLAHOMA      CLOUDY    75  73  94 SW6       30.11S
WINCHESTER     MOSUNNY   79  73  83 SW5       30.10S
MCMINNVILLE    PTSUNNY   81  79  94 CALM      30.09S
COLUMBIA       CLOUDY    79  79 100 SW8       30.05R
SHELBYVILLE    CLOUDY    77  73  88 S5        30.08F
$$

TNZ017-018-042-046-047-161500-
NORTHEAST TENNESSEE

CITY           SKY/WX    TMP DP  RH WIND       PRES   REMARKS
TRI CITIES     PTSUNNY   75  71  87 CALM      30.12F
ELIZABETHTON   CLOUDY    73  70  88 CALM      30.13S
$$

TNZ012-013-036-069-073-074-161500-
CENTRAL EAST TENNESSEE

CITY           SKY/WX    TMP DP  RH WIND       PRES   REMARKS
KNOXVILLE      PTSUNNY   78  72  81 SW7       30.10R
OAK RIDGE      PTSUNNY   77  71  82 W3        30.12R
DOWNTOWN KNOXV PTSUNNY   77  73  88 W7        30.10R
GATLINBURG     SUNNY     81  70  69 W3        30.10R
MORRISTOWN     CLOUDY    77  73  88 VRB6      30.10S
JACKSBORO      MOSUNNY   73  73 100 CALM      30.14S
$$

TNZ083-085-099-161500-
SOUTHEAST TENNESSEE

CITY           SKY/WX    TMP DP  RH WIND       PRES   REMARKS
CHATTANOOGA    MOSUNNY   79  73  82 CALM      30.09S
DAYTON         MOSUNNY   81  77  89 CALM      30.08S
$$

SKY/WX REPORTED AS FAIR MEANS FEW OR NO CLOUDS BELOW
12 THOUSAND FEET.




USA.gov is the U.S. government's official web portal to all federal, state and local government web resources and services.